When you browse on this site, cookies collect data to enhance your experience and personalize the content and advertising you see.
Visit our Privacy Policy to learn more. By continuing to use the site, you agree to this use of cookies and data.
EN

Hourly Weather Zolochevo

Today, 8 August, Saturday

Time Temperature Precipitation Wind Pressure Humidity
00:00 +19°C° 0 mm 1 mps 752 mmHg 89%
01:00 +19°C° 0 mm 1 mps 752 mmHg 89%
02:00 +19°C° 0 mm 1 mps 752 mmHg 90%
03:00 +19°C° 0 mm 1 mps 752 mmHg 89%
04:00 +19°C° 0 mm 1 mps 752 mmHg 89%
05:00 +17°C° 0 mm 0 mps 752 mmHg 88%
06:00 +20°C° 0 mm 1 mps 752 mmHg 87%
07:00 +20°C° 0 mm 1 mps 752 mmHg 86%
08:00 +21°C° 0 mm 1 mps 752 mmHg 84%
09:00 +21°C° 0.1 mm 1 mps 752 mmHg 82%
10:00 +22°C° 0.1 mm 1 mps 752 mmHg 79%
11:00 +22°C° 0.1 mm 1 mps 752 mmHg 77%
12:00 +23°C° 0.1 mm 1 mps 751 mmHg 73%
13:00 +24°C° 0.1 mm 2 mps 751 mmHg 70%
14:00 +25°C° 0 mm 1 mps 751 mmHg 68%
15:00 +25°C° 0.1 mm 1 mps 750 mmHg 69%
16:00 +25°C° 0.1 mm 2 mps 750 mmHg 70%
17:00 +25°C° 0.1 mm 2 mps 749 mmHg 72%
18:00 +23°C° 0.1 mm 2 mps 749 mmHg 77%
19:00 +21°C° 0.1 mm 2 mps 749 mmHg 82%
20:00 +19°C° 0.1 mm 2 mps 749 mmHg 87%
21:00 +20°C° 0 mm 1 mps 749 mmHg 88%
22:00 +19°C° 0 mm 1 mps 749 mmHg 89%
23:00 +18°C° 0 mm 1 mps 749 mmHg 90%

Tomorrow, 9 August, Sunday

Time Temperature Precipitation Wind Pressure Humidity
00:00 +18°C° 0 mm 1 mps 749 mmHg 90%
01:00 +18°C° 0 mm 1 mps 749 mmHg 91%
02:00 +16°C° 0 mm 1 mps 749 mmHg 92%
03:00 +16°C° 0 mm 1 mps 748 mmHg 92%
04:00 +16°C° 0 mm 2 mps 748 mmHg 93%
05:00 +16°C° 0 mm 2 mps 748 mmHg 94%
06:00 +17°C° 0 mm 2 mps 748 mmHg 90%
07:00 +19°C° 0 mm 2 mps 748 mmHg 86%
08:00 +20°C° 0 mm 2 mps 748 mmHg 82%
09:00 +23°C° 0.3 mm 2 mps 748 mmHg 78%
10:00 +24°C° 0.3 mm 3 mps 748 mmHg 74%
11:00 +25°C° 0.3 mm 3 mps 748 mmHg 70%
12:00 +25°C° 0.1 mm 3 mps 748 mmHg 68%
13:00 +26°C° 0.1 mm 3 mps 747 mmHg 65%
14:00 +26°C° 0.1 mm 2 mps 747 mmHg 63%
15:00 +26°C° 0.1 mm 2 mps 747 mmHg 65%
16:00 +26°C° 0.1 mm 2 mps 747 mmHg 67%
17:00 +25°C° 0.1 mm 2 mps 746 mmHg 69%
18:00 +24°C° 0.2 mm 2 mps 746 mmHg 74%
19:00 +21°C° 0.2 mm 2 mps 746 mmHg 79%
20:00 +20°C° 0.2 mm 2 mps 746 mmHg 84%
21:00 +19°C° 0.2 mm 2 mps 746 mmHg 85%
22:00 +19°C° 0.2 mm 2 mps 746 mmHg 87%
23:00 +19°C° 0.2 mm 1 mps 746 mmHg 89%

Day after tomorrow, 10 August, Monday

Time Temperature Precipitation Wind Pressure Humidity
00:00 +18°C° 0 mm 2 mps 746 mmHg 90%
01:00 +17°C° 0 mm 2 mps 746 mmHg 91%
02:00 +17°C° 0 mm 2 mps 746 mmHg 92%
03:00 +18°C° 0 mm 1 mps 746 mmHg 93%
04:00 +18°C° 0 mm 1 mps 746 mmHg 93%
05:00 +18°C° 0 mm 1 mps 746 mmHg 94%
06:00 +19°C° 0 mm 1 mps 746 mmHg 90%
07:00 +19°C° 0 mm 2 mps 746 mmHg 87%
08:00 +21°C° 0 mm 2 mps 746 mmHg 83%
09:00 +23°C° 0.9 mm 2 mps 746 mmHg 79%
10:00 +24°C° 0.9 mm 2 mps 746 mmHg 75%
11:00 +25°C° 0.9 mm 2 mps 746 mmHg 70%
12:00 +25°C° 1.2 mm 2 mps 746 mmHg 69%
13:00 +26°C° 1.2 mm 2 mps 746 mmHg 67%
14:00 +26°C° 1.2 mm 2 mps 746 mmHg 65%
15:00 +26°C° 0.5 mm 2 mps 745 mmHg 67%
16:00 +26°C° 0.5 mm 2 mps 745 mmHg 70%
17:00 +26°C° 0.5 mm 1 mps 745 mmHg 72%
18:00 +24°C° 0.2 mm 2 mps 745 mmHg 76%
19:00 +23°C° 0.2 mm 2 mps 745 mmHg 80%
20:00 +20°C° 0.2 mm 2 mps 745 mmHg 84%
21:00 +19°C° 0 mm 2 mps 745 mmHg 86%
22:00 +19°C° 0 mm 2 mps 745 mmHg 88%
23:00 +18°C° 0 mm 2 mps 745 mmHg 91%

11 August, Tuesday

Time Temperature Precipitation Wind Pressure Humidity
00:00 +18°C° 0.1 mm 2 mps 745 mmHg 92%
01:00 +17°C° 0.1 mm 3 mps 745 mmHg 94%
02:00 +17°C° 0.1 mm 3 mps 745 mmHg 95%
03:00 +16°C° 0 mm 3 mps 745 mmHg 95%
04:00 +16°C° 0 mm 3 mps 745 mmHg 95%
05:00 +14°C° 0 mm 3 mps 745 mmHg 95%
06:00 +16°C° 0 mm 3 mps 745 mmHg 91%
07:00 +17°C° 0 mm 3 mps 745 mmHg 87%
08:00 +18°C° 0 mm 3 mps 745 mmHg 83%
09:00 +19°C° 0 mm 4 mps 746 mmHg 79%
10:00 +20°C° 0 mm 4 mps 746 mmHg 74%
11:00 +21°C° 0 mm 4 mps 746 mmHg 69%
12:00 +21°C° 0 mm 4 mps 746 mmHg 68%
13:00 +21°C° 0 mm 5 mps 746 mmHg 67%
14:00 +21°C° 0 mm 5 mps 746 mmHg 67%
15:00 +20°C° 0 mm 5 mps 746 mmHg 68%
16:00 +19°C° 0 mm 5 mps 746 mmHg 70%
17:00 +19°C° 0 mm 5 mps 746 mmHg 72%
18:00 +17°C° 0 mm 4 mps 746 mmHg 76%
19:00 +15°C° 0 mm 4 mps 746 mmHg 80%
20:00 +13°C° 0 mm 3 mps 747 mmHg 84%
21:00 +13°C° 0 mm 3 mps 747 mmHg 83%
22:00 +13°C° 0 mm 3 mps 747 mmHg 83%
23:00 +13°C° 0 mm 4 mps 747 mmHg 83%

12 August, Wednesday

Time Temperature Precipitation Wind Pressure Humidity
00:00 +12°C° 0 mm 3 mps 747 mmHg 86%
01:00 +11°C° 0 mm 3 mps 747 mmHg 90%
02:00 +10°C° 0 mm 3 mps 747 mmHg 94%
03:00 +10°C° 0 mm 3 mps 747 mmHg 94%
04:00 +10°C° 0 mm 3 mps 747 mmHg 94%
05:00 +10°C° 0 mm 3 mps 748 mmHg 94%
06:00 +11°C° 0 mm 3 mps 748 mmHg 90%
07:00 +12°C° 0 mm 3 mps 748 mmHg 87%
08:00 +13°C° 0 mm 4 mps 748 mmHg 83%
09:00 +14°C° 0 mm 4 mps 748 mmHg 79%
10:00 +15°C° 0 mm 4 mps 748 mmHg 76%
11:00 +17°C° 0 mm 4 mps 748 mmHg 72%
12:00 +18°C° 0.1 mm 4 mps 748 mmHg 70%
13:00 +18°C° 0.1 mm 4 mps 748 mmHg 68%
14:00 +19°C° 0.1 mm 4 mps 748 mmHg 66%
15:00 +18°C° 0.1 mm 3 mps 748 mmHg 69%
16:00 +18°C° 0.1 mm 3 mps 748 mmHg 73%
17:00 +18°C° 0.1 mm 2 mps 748 mmHg 76%
18:00 +16°C° 0.1 mm 2 mps 748 mmHg 79%
19:00 +15°C° 0.1 mm 2 mps 748 mmHg 82%
20:00 +13°C° 0.1 mm 3 mps 749 mmHg 85%
21:00 +13°C° 0 mm 2 mps 749 mmHg 86%
22:00 +12°C° 0 mm 2 mps 749 mmHg 88%
23:00 +10°C° 0 mm 2 mps 749 mmHg 90%

13 August, Thursday

Time Temperature Precipitation Wind Pressure Humidity
00:00 +10°C° 0 mm 2 mps 749 mmHg 90%
01:00 +9°C° 0 mm 2 mps 749 mmHg 90%
02:00 +9°C° 0 mm 2 mps 749 mmHg 91%
03:00 +9°C° 0 mm 2 mps 749 mmHg 91%
04:00 +8°C° 0 mm 2 mps 749 mmHg 91%
05:00 +8°C° 0 mm 2 mps 749 mmHg 91%
06:00 +10°C° 0 mm 2 mps 749 mmHg 86%
07:00 +13°C° 0 mm 2 mps 749 mmHg 81%
08:00 +14°C° 0 mm 2 mps 749 mmHg 75%
09:00 +16°C° 0 mm 2 mps 749 mmHg 70%
10:00 +17°C° 0 mm 2 mps 749 mmHg 65%
11:00 +18°C° 0 mm 2 mps 749 mmHg 60%
12:00 +18°C° 0 mm 2 mps 748 mmHg 61%
13:00 +18°C° 0 mm 2 mps 748 mmHg 63%
14:00 +19°C° 0 mm 2 mps 748 mmHg 64%
15:00 +18°C° 0.1 mm 2 mps 748 mmHg 67%
16:00 +18°C° 0.1 mm 2 mps 748 mmHg 71%
17:00 +18°C° 0.1 mm 2 mps 748 mmHg 75%
18:00 +17°C° 0 mm 2 mps 748 mmHg 78%
19:00 +16°C° 0 mm 2 mps 748 mmHg 80%
20:00 +14°C° 0 mm 2 mps 748 mmHg 83%
21:00 +14°C° 0 mm 2 mps 748 mmHg 85%
22:00 +13°C° 0 mm 1 mps 748 mmHg 87%
23:00 +12°C° 0 mm 1 mps 748 mmHg 88%
Show more